Des Moines, IA

4:04 PM CDT on July 27, 2017 (GMT -0500)
Des Moines International

Weather History for KDSM - October, 2012

Change the Weather History Date:

Monday, October 29, 2012

  Actual Average Record
Temperature  
Mean Temperature 44 °F 48 °F  
Max Temperature 52 °F 57 °F 89 °F (1937)
Min Temperature 36 °F 39 °F 11 °F (1925)
Degree Days  
Heating Degree Days 21 17  
Month to date heating degree days 342 349  
Since 1 July heating degree days 411 449  
Cooling Degree Days 0 0  
Month to date cooling degree days 11 11  
Year to date cooling degree days 1610 1063  
Moisture  
Dew Point 26 °F    
Average Humidity 52    
Maximum Humidity 64    
Minimum Humidity 39    
Precipitation  
Precipitation 0.00 in 0.09 in 1.94 in (1896)
Month to date precipitation 3.34 2.48  
Year to date precipitation 23.03 32.25  
Snow  
Snow 0.00 in 0.00 in 2.50 in (1923)
Month to date snowfall 0.0 0.3  
Since 1 July snowfall 0.0 0.3  
Since 1 September snowfall 0.0 0.3  
Snow Depth 0.00 in    
Sea Level Pressure  
Sea Level Pressure 30.28 in    
Wind  
Wind Speed 8 mph (SE)    
Max Wind Speed 15 mph    
Max Gust Speed -    
Visibility 10 miles    
Events      
T = Trace of Precipitation, MM = Missing Value Source: NWS Daily Summary

Daily Weather History Graph

Daily Weather History Graph

Search for Another Location

Airport or City:

Trip Planner

Search our weather history database for the weather conditions in past years. The results will help you decide how hot, cold, wet, or windy it might be!

Date:

Astronomy

Oct. 29, 2012 Rise Set
Actual Time 7:43 AM CDT 6:12 PM CDT
Civil Twilight 7:14 AM CDT 6:41 PM CDT
Nautical Twilight 6:42 AM CDT 7:13 PM CDT
Astronomical Twilight 6:09 AM CDT 7:46 PM CDT
Moon 6:04 PM CDT (10/29) 7:34 AM CDT (10/29)
Length of Visible Light 11h 26m
Length of Day
10h 29m
Full, 100% of the Moon is Illuminated
Oct 29
Full
Oct 29
Full
Nov 6
Last Quarter
Nov 13
New
Nov 20
First Quarter

Hourly Weather History & Observations

Time (CDT) Temp. Windchill Dew Point Humidity Pressure Visibility Wind Dir Wind Speed Gust Speed Precip Events Conditions
12:54 AM 39.0 °F 35.7 °F 19.9 °F 46% 30.34 in 10.0 mi SE 4.6 mph - N/A   Mostly Cloudy
1:54 AM 39.0 °F 35.7 °F 19.0 °F 45% 30.33 in 10.0 mi SE 4.6 mph - N/A   Mostly Cloudy
3:54 AM 37.9 °F 34.4 °F 21.9 °F 53% 30.33 in 10.0 mi SE 4.6 mph - N/A   Overcast
4:54 AM 37.9 °F 32.7 °F 21.9 °F 53% 30.32 in 10.0 mi SE 6.9 mph - N/A   Overcast
5:54 AM 37.9 °F 32.7 °F 24.1 °F 57% 30.32 in 10.0 mi SE 6.9 mph - N/A   Overcast
6:54 AM 37.9 °F 33.5 °F 26.1 °F 62% 30.33 in 10.0 mi SE 5.8 mph - N/A   Overcast
7:54 AM 39.0 °F 32.8 °F 26.1 °F 60% 30.32 in 10.0 mi SE 9.2 mph - N/A   Overcast
8:54 AM 39.9 °F 35.1 °F 28.0 °F 63% 30.33 in 10.0 mi SE 6.9 mph - N/A   Overcast
9:54 AM 41.0 °F 36.4 °F 28.9 °F 62% 30.34 in 10.0 mi SE 6.9 mph - N/A   Overcast
10:54 AM 43.0 °F 37.7 °F 30.0 °F 60% 30.33 in 10.0 mi SE 9.2 mph - N/A   Overcast
11:54 AM 46.0 °F 40.2 °F 30.9 °F 56% 30.33 in 10.0 mi SE 12.7 mph - N/A   Overcast
12:54 PM 48.0 °F - 30.2 °F 50% 30.30 in 10.0 mi SSE 13.8 mph - N/A   Mostly Cloudy
1:54 PM 50.0 °F - 30.9 °F 48% 30.27 in 10.0 mi SSE 13.8 mph - N/A   Scattered Clouds
2:54 PM 51.1 °F - 28.9 °F 43% 30.23 in 10.0 mi SE 12.7 mph - N/A   Scattered Clouds
3:54 PM 51.1 °F - 28.9 °F 43% 30.21 in 10.0 mi SSE 13.8 mph - N/A   Scattered Clouds
4:54 PM 50.0 °F - 27.0 °F 41% 30.20 in 10.0 mi SE 15.0 mph - N/A   Partly Cloudy
5:54 PM 48.0 °F - 27.0 °F 44% 30.19 in 10.0 mi SE 10.4 mph - N/A   Partly Cloudy
6:54 PM 46.0 °F 43.1 °F 27.0 °F 47% 30.21 in 10.0 mi ESE 5.8 mph - N/A   Partly Cloudy
7:54 PM 45.0 °F 41.2 °F 27.0 °F 49% 30.21 in 10.0 mi ESE 6.9 mph - N/A   Partly Cloudy
8:54 PM 44.1 °F 39.5 °F 27.0 °F 51% 30.22 in 10.0 mi ESE 8.1 mph - N/A   Partly Cloudy
9:54 PM 43.0 °F 39.5 °F 27.0 °F 53% 30.21 in 10.0 mi ESE 5.8 mph - N/A   Clear
10:54 PM 39.9 °F 37.8 °F 27.0 °F 60% 30.20 in 10.0 mi East 3.5 mph - N/A   Clear
11:54 PM 39.9 °F 37.8 °F 27.0 °F 60% 30.18 in 10.0 mi Variable 3.5 mph - N/A   Clear